Tracking 29487 objects as of 10-Sep-2024
HD Live streaming from Space Station
objects crossing your sky now

STARLINK-30462

Track STARLINK-30462 now!
10-day predictions
STARLINK-30462 is classified as:


NORAD ID: 57902
Int'l Code: 2023-146M
Perigee: 565.5 km
Apogee: 566.9 km
Inclination: 43.0 °
Period: 95.8 minutes
Semi major axis: 6937 km
RCS: Unknown
Launch date: September 20, 2023
Source: United States (US)
Launch site: AIR FORCE EASTERN TEST RANGE (AFETR)
Your satellite tracking list
Your tracking list is empty




NASA's NSSDC Master Catalog

Two Line Element Set (TLE):
1 57902U 23146M   24253.81279652  .00000856  00000-0  78376-4 0  9999
2 57902  43.0032  39.3604 0000963 246.5976 113.4765 15.02542982 54913
Source of the keplerian elements: AFSPC